Weather Roundup
Issued by NWS Corpus Christi, TX

Home | Current Version | Previous Version | Text Only | Print | Product List | Glossary On
Versions: 1 2 3 4 5 6 7 8 9 10 11 12 13 14 15 16 17 18 19 20 21 22 23 24 25 26 27 28 29 30 31 32 33 34 35 36 37 38 39 40 41 42 43 44 45 46 47 48 49 50
000
ASUS44 KCRP 242110
HRRCRP

SOUTH TEXAS REGIONAL WEATHER ROUNDUP
NATIONAL WEATHER SERVICE CORPUS CHRISTI TX
400 PM CDT THU APR 24 2014


TXZ229>244-242200-
...CORPUS CHRISTI AREA OBSERVATIONS...

CITY           SKY/WX    TMP DP  RH WIND       PRES   REMARKS
CORPUS CHRISTI CLOUDY    81  69  67 SE15      29.81S
NAS CORPUS CHR CLOUDY    79  71  76 SE18      29.81F
ROCKPORT       CLOUDY    79  70  74 SE14      29.81F
KINGSVILLE NAS CLOUDY    83  70  64 SE14      29.80S
ALICE          CLOUDY    86  68  54 E8        29.79S
FALFURRIAS     CLOUDY    90  64  41 N6        29.76F HX  91
$$

...VICTORIA AREA OBSERVATIONS...

CITY           SKY/WX    TMP DP  RH WIND       PRES   REMARKS
VICTORIA       PTSUNNY   82  68  62 S10       29.83F
BEEVILLE       CLOUDY    82  68  61 E7        29.82F
PLEASANTON     SUNNY     86  63  46 N3        29.82F
SAN ANTONIO    MOSUNNY   88  64  44 E6        29.81F
$$

...LAREDO AREA OBSERVATIONS...

CITY           SKY/WX    TMP DP  RH WIND       PRES   REMARKS
LAREDO         SUNNY     91  63  39 N12       29.83S HX  92
COTULLA        SUNNY     90  60  36 N9        29.81F
DEL RIO        SUNNY     97  21   6 NW14G23   29.81F HX  90
MCALLEN        PTSUNNY   93  68  43 CALM      29.74F HX  97
HEBBRONVILLE   PTSUNNY   87  64  46 NW10      29.81F
$$

...OTHER TEXAS OBSERVATIONS...

CITY           SKY/WX    TMP DP  RH WIND       PRES   REMARKS
BROWNSVILLE    CLOUDY    84  70  62 SE20      29.77F
HOUSTON        CLOUDY    83  64  52 S8        29.83F
COL. STATION   PTSUNNY   82  67  60 SW8       29.84F
AUSTIN         MOSUNNY   84  66  54 VRB7      29.81F
WACO           SUNNY     87  46  24 N13       29.82F
FORT WORTH     MOSUNNY   83  49  30 NW21G29   29.81F
WICHITA FALLS  SUNNY     79  42  26 N17G28    29.86F
LUBBOCK        MOSUNNY   76  23  14 NW15      29.99F
EL PASO        MOSUNNY   79  11   7 VRB3      30.01F
$$

...MARINE OBSERVATIONS...

STATION/POSITION TIME  SKY/WX   TEMP    WIND        PRES    VSBY  WAVE   SWELL
                                AIR SEA DIR/SP/G                  HT/PER HT/PER
                 (UTC)          (F)     (DEG/KT/KT) (MB)    (MI)  (FT/S) (FT/S)
PORT ARANSAS     2100            72 76  120/ 11/ 12 1010.0F
BUOY 90 E PORT A NOT AVBL
BUOY 45 SE BAFFI 2100            73 72  140/  8/ 10 1009.8F         4/ 7   3/ 7
BUOY 200 E PT IS NOT AVBL
BUOY 15 E GALVES 2100            71 70  180/  4/  6 1011.9R         3/ 6   2/ 6
$$



USA.gov is the U.S. government's official web portal to all federal, state and local government web resources and services.